Satellite: RS-30
Catalog number: 32953
Epoch time:      10350.75943174
Element set:     304
Inclination:      082.5019 deg
RA of node:       276.1445 deg
Eccentricity:    0.0020158
Arg of perigee:   064.0936 deg
Mean anomaly:     296.2226 deg
Mean motion:   12.43009850 rev/day
Decay rate:        1.0e-07 rev/day^2
Epoch rev:           11642
Checksum:              266

Satellite: TACSAT-3
Catalog number: 35001
Epoch time:      10349.94007183
Element set:    0470
Inclination:      040.4548 deg
RA of node:       200.7069 deg
Eccentricity:    0.0023887
Arg of perigee:   286.8861 deg
Mean anomaly:     072.9336 deg
Mean motion:   15.44040508 rev/day
Decay rate:      6.644e-05 rev/day^2
Epoch rev:           08871
Checksum:              302

Satellite: PHARMSAT
Catalog number: 35002
Epoch time:      10349.90933454
Element set:    0426
Inclination:      040.4693 deg
RA of node:       198.4274 deg
Eccentricity:    0.0025989
Arg of perigee:   289.2288 deg
Mean anomaly:     070.5729 deg
Mean motion:   15.44322016 rev/day
Decay rate:      6.192e-05 rev/day^2
Epoch rev:           08873
Checksum:              319

Satellite: HAWKSAT1
Catalog number: 35003
Epoch time:      10350.81022139
Element set:     463
Inclination:      040.4575 deg
RA of node:       180.6745 deg
Eccentricity:    0.0024859
Arg of perigee:   318.4999 deg
Mean anomaly:     041.4021 deg
Mean motion:   15.50069056 rev/day
Decay rate:     1.6638e-04 rev/day^2
Epoch rev:            8901
Checksum:              285

Satellite: CP6
Catalog number: 35004
Epoch time:      10350.85145505
Element set:     465
Inclination:      040.4562 deg
RA of node:       177.3966 deg
Eccentricity:    0.0024310
Arg of perigee:   325.1716 deg
Mean anomaly:     034.7498 deg
Mean motion:   15.52004943 rev/day
Decay rate:     2.2595e-04 rev/day^2
Epoch rev:            8904
Checksum:              289

Satellite: AEROCUB3
Catalog number: 35005
Epoch time:      10350.82776191
Element set:     564
Inclination:      040.4589 deg
RA of node:       153.8651 deg
Eccentricity:    0.0023486
Arg of perigee:   348.1753 deg
Mean anomaly:     011.8515 deg
Mean motion:   15.85095971 rev/day
Decay rate:    4.16186e-03 rev/day^2
Epoch rev:            8930
Checksum:              317

Satellite: METEOR-M
Catalog number: 35865
Epoch time:      10350.67821250
Element set:     928
Inclination:      098.7349 deg
RA of node:       042.9371 deg
Eccentricity:    0.0002134
Arg of perigee:   181.7313 deg
Mean anomaly:     178.3809 deg
Mean motion:   14.21833517 rev/day
Decay rate:       1.76e-06 rev/day^2
Epoch rev:            6465
Checksum:              302

Satellite: RS-38
Catalog number: 35869
Epoch time:      10350.77023015
Element set:     940
Inclination:      098.7322 deg
RA of node:       043.0679 deg
Eccentricity:    0.0004281
Arg of perigee:   189.0786 deg
Mean anomaly:     171.0281 deg
Mean motion:   14.21996109 rev/day
Decay rate:       1.77e-06 rev/day^2
Epoch rev:            6467
Checksum:              313

/EX


_______________________________________________
Via the Keps mailing list courtesy of AMSAT-NA
http://amsat.org/mailman/listinfo/keps

--- ViaMAIL!/WC v1.60d
 * Origin: Chowdanet (401-724-4410) telnet://chowdanet.com  (1:323/120)